Regional Weather Roundup
Issued by NWS

Home | Current Version | Previous Version | Graphics & Text | Print | Product List | Glossary Off
Versions: 1 2 3 4 5 6 7 8 9 10 11 12 13 14 15 16 17 18 19 20 21 22 23 24 25 26 27 28 29 30 31 32 33 34 35 36 37 38 39 40 41 42 43 44 45 46 47 48 49 50

000
ASUS43 KDMX 271208
RWRIA

WEATHER ROUNDUP FOR IOWA
NATIONAL WEATHER SERVICE DES MOINES IA
700 AM CDT WED JUL 27 2016

NOTE: "FAIR" INDICATES FEW OR NO CLOUDS BELOW 12,000 FEET WITH NO
SIGNIFICANT WEATHER AND/OR OBSTRUCTIONS TO VISIBILITY.

* - THESE STATIONS ARE NOT NWS STATIONS...THUS NOT UNDER NWS
QUALITY CONTROL.  THEY ALSO DO NOT REPORT WEATHER SUCH
AS PRECIPITATION OR FOG.

IAZ001>003-012>014-020>022-031>034-043>046-271300-
   NORTHWEST IOWA

CITY           SKY/WX    TMP DP  RH WIND       PRES   REMARKS
CARROLL *      PTCLDY    66  64  94 SE5       29.98S
CHEROKEE *     CLOUDY    68  67  95 NE5       29.96F
DENISON *      CLOUDY    70  66  88 E8G18     29.88F
LE MARS *      MOCLDY    68  66  94 CALM      29.99R
SHELDON *      CLOUDY    68  68 100 SE5       29.96F
SIOUX CITY     PTCLDY    73  67  81 N13       29.93R
6HR MIN TEMP:  70; 6HR MAX TEMP:  74;

SPENCER        CLOUDY    67  64  90 CALM      29.99R
6HR MIN TEMP:  64; 6HR MAX TEMP:  68;

STORM LAKE *   CLOUDY    66  64  94 E6        29.97F
$$

IAZ055>058-069>071-079>083-090>094-271300-
   SOUTHWEST IOWA

CITY           SKY/WX    TMP DP  RH WIND       PRES   REMARKS
ATLANTIC *     PTCLDY    68  64  88 SE7       29.94F
CLARINDA *       N/A     64  64 100 MISG      30.00F FOG
COUNCIL BLFS * CLOUDY    68  66  94 S10       29.94R
CRESTON *      CLOUDY    64  63  94 SE6       30.02S
HARLAN  *      CLOUDY    68  66  94 SE10      29.96F
LAMONI         CLOUDY    68  64  87 SE5       30.01F
6HR MIN TEMP:  64; 6HR MAX TEMP:  72;

RED OAK *      PTCLDY    68  66  94 SE7       29.95F
SHENANDOAH *   MOCLDY    68  68 100 SE7       29.96S
$$

IAZ047>049-059>061-072>074-084-271300-
   CENTRAL IOWA

CITY           SKY/WX    TMP DP  RH WIND       PRES   REMARKS
AMES           PTCLDY    63  63 100 CALM      30.01R FOG
6HR MIN TEMP:  60; 6HR MAX TEMP:  66;

ANKENY *         N/A    N/A N/A N/A MISG        N/A
BOONE *        PTCLDY    66  64  94 CALM      30.00R
CHARITON *       N/A    N/A N/A N/A MISG        N/A
DES MOINES     CLOUDY    70  66  87 CALM      30.00R
6HR MIN TEMP:  70; 6HR MAX TEMP:  76;

GRINNELL*      PTCLDY    65  63  93 CALM      30.02S FOG
KNOXVILLE *    CLOUDY    68  64  88 CALM      29.99F
MARSHALLTOWN   PTCLDY    62  62 100 E6        30.00F
6HR MIN TEMP:  62; 6HR MAX TEMP:  67;

NEWTON *       PTCLDY    66  66 100 E3        30.00F
PERRY *          N/A     64  63  98 CALM      30.00S FOG
$$

IAZ004>006-015-016-023>025-035-036-271300-
   NORTH CENTRAL IOWA

CITY           SKY/WX    TMP DP  RH WIND       PRES   REMARKS
ALGONA *       PTCLDY    66  64  94 S9        30.00R
ESTHERVILLE    CLOUDY    64  64 100 SW5       29.99R
6HR MIN TEMP:  64; 6HR MAX TEMP:  67;

FORT DODGE *   MOCLDY    66  63  88 E3        30.01R
MASON CITY     CLOUDY    65  63  93 CALM      30.03R
6HR MIN TEMP:  62; 6HR MAX TEMP:  69;

FOREST CITY *    N/A     63  63 100 CALM      30.01R
IOWA FALLS *     N/A     65  63  94 SE3       30.02S
$$

IAZ007>011-017>019-026>030-037>042-050>054-066-271300-
   NORTHEAST IOWA

CITY           SKY/WX    TMP DP  RH WIND       PRES   REMARKS
CEDAR RAPIDS   MOSUNNY   65  65 100 CALM      30.01S
6HR MIN TEMP:  61; 6HR MAX TEMP:  67;

CHARLES CITY * PTCLDY    66  66 100 CALM      30.02R
CLINTON *      SUNNY     67  65  93 NE6       30.03S
DECORAH *      SUNNY     66  66 100 SE5       30.01S
DUBUQUE        SUNNY     67  64  90 CALM      30.04S
6HR MIN TEMP:  64; 6HR MAX TEMP:  67;

MONTICELLO *   SUNNY     64  63  94 CALM      30.02S
WATERLOO       PTCLDY    68  65  90 CALM      30.00S
6HR MIN TEMP:  62; 6HR MAX TEMP:  68;

$$

IAZ064-065-067-068-078-271300-
   EAST CENTRAL IOWA

CITY           SKY/WX    TMP DP  RH WIND       PRES   REMARKS
DAVENPORT      MOSUNNY   66  64  93 CALM      30.03S
6HR MIN TEMP:  62; 6HR MAX TEMP:  66;

IOWA CITY      MOSUNNY   68  66  93 CALM      30.02S
6HR MIN TEMP:  65; 6HR MAX TEMP:  70;

MT. PLEASANT * MOSUNNY   69  69 100 CALM      30.01S
MUSCATINE *    SUNNY     66  64  94 CALM      30.01F
QUAD CITIES    SUNNY     69  65  86 E6        30.02S
6HR MIN TEMP:  65; 6HR MAX TEMP:  69;

$$

IAZ062-063-075>077-085>089-095>099-271300-
   SOUTHEAST IOWA

CITY           SKY/WX    TMP DP  RH WIND       PRES   REMARKS
BURLINGTON     SUNNY     71  70  96 CALM      30.01S
6HR MIN TEMP:  67; 6HR MAX TEMP:  74;

FAIRFIELD *    PTCLDY    66  64  94 CALM      30.01S
KEOKUK *       PTCLDY    72  70  94 CALM      30.00S
CENTERVILLE *    N/A     66  64  94 CALM      30.03S
OTTUMWA        CLEAR     66  65  96 SE3       29.99F
6HR MIN TEMP:  61; 6HR MAX TEMP:  66;

WASHINGTON *   PTSUNNY   68  66  94 CALM      30.02F
$$

ABBREVIATIONS USED IN REMARKS
   TC - TEMPERATURES IN CELSIUS
  WCI - WIND CHILL INDEX
   HX - HEAT INDEX
  VSB - VISIBILITY
$$





USA.gov is the U.S. government's official web portal to all federal, state and local government web resources and services.